Location: Berg
(48.4333°N, 13.9167°E)
Time: 05:31:32
(UTC+00:00)

Cosmos 2263 Rocket - Pass Details

Date: 18 September 2020
Orbit: 822 x 850 km, 71.0° (Epoch: 29 October)

Event Time Altitude Azimuth Distance (km) Brightness Sun altitude
Rises 19:32:45 0° 246° (WSW) 3,353 5.8 -23.3°
Reaches altitude 10° 19:35:34 10° 259° (W) 2,426 5.2 -23.7°
Maximum altitude 19:40:10 26° 315° (NW) 1,594 4.3 -24.3°
Drops below altitude 10° 19:44:48 10° 11° (N) 2,449 4.9 -25.0°
Sets 19:47:40 0° 24° (NNE) 3,391 5.5 -25.3°
